星链-36764(STARLINK-36764)

导读

STARLINK-36764(NORAD编号68963)是SpaceX星链(Starlink)卫星互联网星座中的一颗低轨通信卫星,归属SpaceX旗下第二代星链网络部署计划。作为星链大规模组网的组成部分,它主要为全球用户提供宽带互联网接入服务。 2026年SpaceX启动降轨计划,将包括该卫星在内的约4400颗星链卫星轨道高度从550公里降至480公里,以此缩短故障卫星离轨时间、降低碰撞风险,缓解近地轨道拥挤问题,减少太空碎片隐患,应对凯斯勒现象风险。

基本信息
目录编号:
68963
目录名称:
STARLINK-36764
国际标识:
2026-099N
轨道中心:
EARTH
卫星名称:
星链-36764
卫星全名:
星链-36764(STARLINK-36764)
卫星状态:
在轨 (已飞行88 天)
发射日期:
2026-05-01 UTC
国别 :
美国 (US)
星等 :
--
轨道信息
数据来源 国际轨道数据
星历时间: 2026-07-27T15:46:25+0800
16小时前
查看轨道信息
半长轴: 6840.833km
偏心率: 0.0001785
轨道倾角: 53.159°
近地点辐角 80.913°
升交点赤经 333.713°
平近点角 279.208°
近地点: 461.474km
远地点: 463.918km
周期: 93.848分钟
每日圈数: 15.344025
详细信息
固有亮度:
5
最大亮度:
2.5
卫星平台:
Starlink V1.0
覆盖范围:
全球
运营商:
太空探索技术公司
运营商所在国:
美国
制造商(研发单位):
太空探索技术公司
制造商所在国:
美国
使用方式:
暂无
卫星简介
Starlink 计划是 SpaceX 推出的全球卫星互联网项目,通过发射低轨道卫星,为全球尤其是偏远地区提供高速、低延迟的互联网服务。自 2019 年起,Starlink 已部署数千颗卫星,旨在缩小全球数字鸿沟,推动互联网普及。该项目还为军事、航空等行业提供通信支持,带来广泛经济效益。
2D轨道图
3D轨道图
轨道高度分析图
轨道倾角分析图
轨道综合分析图
查看轨道综合分析图